Regional Weather Roundup
Issued by NWS

Home | Current Version | Previous Version | Text Only | Print | Product List | Glossary Off
Versions: 1 2 3 4 5 6 7 8 9 10 11 12 13 14 15 16 17 18 19 20 21 22 23 24 25 26 27 28 29 30 31 32 33 34 35 36 37 38 39 40 41 42 43 44 45 46 47 48 49 50

000
ASUS43 KLMK 240010
RWRKY
KENTUCKY REGIONAL WEATHER ROUNDUP
NATIONAL WEATHER SERVICE LOUISVILLE KY
800 PM EDT WED AUG 23 2017

NOTE "FAIR" INDICATES FEW OR NO CLOUDS BELOW 12,000 FEET
WITH NO SIGNIFICANT WEATHER AND/OR OBSTRUCTIONS TO VISIBILITY.

KYZ001>023-026-027-061>063-070>075-240100-
WESTERN AND SOUTH CENTRAL KENTUCKY

CITY           SKY/WX    TMP DP  RH WIND       PRES   REMARKS
PADUCAH        CLEAR     78  54  43 N7        29.98F
HENDERSON      NOT AVBL
OWENSBORO      PTCLDY    77  56  48 N7        29.99S
HOPKINSVILLE   PTCLDY    75  58  56 N6        29.98S
BOWLING GREEN  CLEAR     78  58  49 VRB3      29.98R
GLASGOW        PTCLDY    73  56  55 N5        29.98R
$$

KYZ024-025-028>034-038-045-046-053-240100-
NORTH CENTRAL KENTUCKY

CITY           SKY/WX    TMP DP  RH WIND       PRES   REMARKS
LOUISVILLE/SDF MOCLDY    78  54  43 N8        29.97S
LOUISVILLE/LOU PTCLDY    76  57  51 N8        29.98S
FORT KNOX      CLEAR     73  57  56 NW5       29.96F
$$

KYZ035>037-039>044-047>052-055>060-089>105-240100-
NORTHEAST KENTUCKY

CITY           SKY/WX    TMP DP  RH WIND       PRES   REMARKS
LEXINGTON      CLEAR     74  52  46 N5        29.99S
COVINGTON      PTCLDY    74  52  46 N8        29.99S
FRANKFORT      CLEAR     75  53  46 NW6       29.97F
$$

KYZ054-064>069-076>088-106>120-240100-
SOUTHEAST KENTUCKY

CITY           SKY/WX    TMP DP  RH WIND       PRES   REMARKS
JACKSON        CLEAR     70  56  61 VRB5      29.99S
LONDON         PTCLDY    73  56  54 N5        29.98S
SOMERSET       CLEAR     72  54  53 N6        29.98S
MIDDLESBORO    PTCLDY    74  62  66 N3        29.97S
MONTICELLO     MOCLDY    71  64  78 N13       29.99S
$$




USA.gov is the U.S. government's official web portal to all federal, state and local government web resources and services.